SCP
2 2 2 2 2 2 2 1 1 1 1 1 1 2 2 1 1 1 1 2 2 2 2 2 2 1 1 1 1 1 1 2 2 2 2 2 2 2 2 2 2 2 1
2 2 2 2 2 2 2 2 1 1 1 1 1 2 2 2 2 1 1 1 2 2 2 2 2 1 1 1 1 1 1 1 1 1 2 2 2 2 3 3 2 2 1
2 2 2 2 2 2 2 2 2 2 1 1 2 2 2 2 2 2 1 1 2 2 2 2 1 1 1 1 1 1 1 1 1 1 1 1 2 2 2 3 2 2 2
2 2 2 2 2 2 2 2 2 2 1 1 1 2 2 2 2 2 1 1 2 2 2 1 1 1 1 1 1 1 1 1 1 1 1 1 1 2 2 2 2 2 2
2 2 2 2 2 2 2 2 2 2 2 1 1 1 1 2 2 2 1 1 2 2 2 1 1 1 1 1 1 1 1 1 1 1 2 2 1 1 1 1 1 1 2
2 2 2 2 2 2 2 2 3 3 2 1 1 1 1 1 2 1 1 1 2 2 2 1 1 1 1 1 1 1 1 1 1 1 2 2 1 1 1 1 1 1 1
2 2 2 3 3 2 2 3 3 3 2 1 1 1 1 1 2 1 1 1 1 1 1 2 2 1 1 1 1 1 1 1 1 1 1 1 1 1 1 1 1 1 1
3 3 4 4 3 3 3 3 3 2 2 1 1 1 1 1 1 1 1 1 1 1 1 2 2 2 2 1 1 1 1 1 1 1 1 1 1 1 1 1 1 1 1
4 4 4 4 4 3 3 3 3 3 2 2 2 2 1 1 1 1 1 1 1 1 1 1 2 2 2 2 1 1 1 1 1 1 1 1 1 1 1 1 1 1 1
5 5 4 4 4 4 4 4 4 3 3 2 2 2 2 1 1 1 1 1 1 1 1 1 1 2 2 2 2 1 1 1 1 1 1 1 1 1 1 1 1 1 1
4 4 3 3 4 4 4 4 4 4 3 3 2 2 2 1 1 1 1 1 2 1 1 1 1 1 2 2 2 1 1 0 0 0 1 1 0 1 1 1 1 1 1
3 3 3 3 3 4 4 4 3 3 3 3 2 2 2 1 1 1 1 1 2 2 2 1 1 1 1 2 2 1 1 0 0 0 0 0 0 0 1 1 1 1 1
3 3 3 3 3 3 3 3 3 2 2 2 2 2 2 2 1 1 1 1 1 2 2 2 2 1 1 1 1 1 1 0 0 0 0 0 0 0 0 0 1 1 1
4 4 4 3 3 3 2 2 2 2 2 2 2 2 2 2 2 2 2 2 1 2 2 2 2 1 1 1 1 1 1 1 0 0 0 0 0 0 0 0 0 0 1
4 5 5 3 3 2 2 2 2 2 2 3 2 2 2 2 2 2 2 2 2 2 2 2 2 1 1 1 1 1 1 1 0 0 0 0 0 0 0 0 0 0 0
6 6 6 5 4 3 3 3 3 2 2 3 3 2 2 2 1 1 2 2 2 2 1 2 2 2 1 1 1 2 2 1 1 0 0 0 0 0 0 0 0 0 0
7 7 6 5 5 5 4 4 3 3 3 3 3 3 2 2 2 1 1 2 2 2 1 2 2 2 1 2 2 2 2 2 2 1 1 0 0 0 0 0 0 0 0
7 6 5 5 5 5 4 4 4 3 3 4 4 4 3 2 2 2 1 1 2 2 2 2 2 2 2 1 2 2 2 2 2 1 1 1 0 0 0 0 0 0 0
7 6 6 5 5 5 5 5 5 4 4 4 5 5 4 3 3 2 2 2 2 2 2 2 2 2 2 1 1 1 1 1 1 1 1 1 1 0 0 0 0 0 0
6 6 5 5 5 5 5 5 5 5 5 5 5 5 5 5 4 3 2 2 2 2 2 1 2 2 2 2 1 1 1 1 1 1 1 1 1 1 1 0 0 0 0
6 5 5 5 5 4 4 4 5 5 5 5 6 6 6 6 5 4 3 2 2 2 2 1 1 2 2 2 2 2 1 1 1 1 1 1 2 2 1 1 1 0 0
6 6 6 5 5 4 4 4 4 5 5 6 6 7 7 6 5 4 3 2 1 1 1 1 2 2 3 3 2 2 2 1 1 1 1 1 1 2 2 2 1 1 0
7 7 7 7 6 5 4 3 4 4 5 6 6 7 7 7 6 5 3 2 1 1 1 1 2 2 3 3 3 3 2 2 1 1 1 1 1 2 2 2 1 1 0
8 8 8 8 8 6 4 3 3 4 4 5 6 8 8 8 8 7 5 3 2 1 1 1 1 2 2 2 3 3 3 2 2 2 2 2 2 2 2 2 1 1 1
9 8 8 8 8 7 5 3 2 3 4 4 6 8 9 10 9 8 6 5 3 2 2 1 1 1 1 2 2 3 3 2 2 2 2 2 3 3 3 3 2 1 1
9 8 8 8 8 8 5 2 1 2 4 4 6 7 9 11 10 7 6 6 4 3 2 2 1 1 1 1 1 2 3 2 2 2 2 3 3 3 3 3 3 2 1
Wind_Speed
2 2 2 1 2 2 2 2 3 3 3 2 3 3 3 3 4 4 4 8 8 6 6 6 6 6 5 4 5 5 5 5 5 5 5 5 5 5 5 5 5 4 4
3 2 2 1 2 2 2 2 3 2 2 2 3 3 4 4 4 5 5 6 7 6 6 6 6 5 5 5 4 4 4 4 4 5 5 6 6 5 6 5 5 4 4
3 2 2 2 2 2 2 2 2 2 2 3 3 3 3 4 4 4 4 4 4 6 6 6 6 5 5 5 4 4 4 4 4 4 5 5 5 5 4 4 4 4 4
3 2 2 2 2 2 2 2 2 2 2 2 2 2 3 3 3 4 3 3 4 4 5 6 6 5 5 5 4 3 3 4 4 5 5 4 5 4 4 4 4 4 4
3 3 3 2 2 2 2 2 3 2 2 2 2 2 2 3 2 3 3 3 4 4 4 5 6 5 5 5 4 3 3 3 4 4 4 4 4 4 3 3 3 3 4
3 2 2 2 2 2 2 2 3 1 2 2 2 3 2 2 2 2 2 2 3 3 4 4 4 3 4 4 3 3 3 3 4 4 4 4 3 3 3 3 3 3 3
3 3 2 2 3 3 2 2 2 2 2 2 2 2 2 2 2 2 2 2 2 2 3 4 3 2 2 4 3 2 2 2 3 3 3 3 3 3 3 3 3 3 3
2 3 3 2 3 3 2 1 1 1 1 2 1 2 2 1 1 1 2 2 2 2 2 3 3 3 2 2 2 3 2 2 2 3 3 3 2 2 2 2 2 2 2
3 2 3 2 2 2 2 1 0 1 1 1 0 1 2 2 1 1 1 2 2 2 1 2 3 3 3 3 2 3 3 3 2 2 2 2 2 1 1 1 1 1 0
3 3 3 2 2 1 1 1 1 1 1 1 1 1 1 2 2 2 1 1 2 2 1 1 2 3 3 3 4 6 5 4 3 3 2 2 2 1 1 1 1 1 1
3 3 3 2 2 2 1 1 0 1 1 0 0 0 1 1 1 3 2 2 1 1 2 2 2 3 3 3 3 6 6 5 4 4 3 3 2 2 2 1 0 0 0
3 3 3 2 2 1 1 1 1 1 0 1 0 0 1 1 1 2 2 2 2 1 2 2 2 2 3 3 5 8 7 6 5 5 4 4 3 3 2 1 1 1 2
3 2 3 2 2 1 2 1 2 1 1 1 1 1 0 0 1 1 2 2 2 1 2 2 2 2 3 3 5 8 7 7 6 5 5 5 5 4 4 4 4 3 3
3 3 4 3 2 2 1 1 1 2 1 2 1 0 0 0 0 1 2 2 2 1 2 2 1 2 2 3 6 6 5 7 6 5 5 5 4 4 4 5 5 5 5
3 3 4 3 2 2 1 1 1 1 1 1 1 1 1 1 1 1 1 1 2 2 2 2 2 2 2 3 5 3 3 6 6 6 6 5 5 4 4 5 5 5 5
2 2 3 3 2 2 2 1 1 1 1 1 1 1 1 1 1 1 1 1 1 2 2 2 2 2 3 4 5 3 4 6 6 6 6 6 5 5 5 5 5 5 5
2 2 2 2 2 2 2 1 2 1 1 1 1 1 1 1 0 0 1 1 1 2 3 2 2 3 3 3 3 3 4 3 4 6 7 6 6 5 5 5 5 5 5
3 3 2 2 2 2 2 2 2 2 1 1 1 0 1 1 1 0 0 0 1 2 3 3 3 3 3 3 3 2 3 3 3 6 7 6 6 5 5 5 5 4 4
3 3 3 2 2 2 2 2 2 1 1 2 1 1 1 1 1 1 1 1 1 1 3 3 3 2 2 2 2 1 2 2 3 5 6 5 5 5 5 5 5 4 4
4 3 3 2 2 2 2 2 2 1 1 1 1 1 1 2 2 2 2 2 1 2 2 3 3 3 2 2 2 1 1 1 2 3 3 4 5 5 5 6 5 5 4
5 4 3 3 3 3 2 2 2 3 2 2 2 1 2 3 3 2 1 1 2 2 3 3 3 2 2 2 2 2 2 2 2 2 2 2 3 3 3 4 5 5 5
4 3 3 3 3 3 2 2 2 2 2 2 2 2 3 3 4 4 4 3 2 2 2 2 3 3 3 2 2 2 1 1 1 2 2 2 3 3 3 3 5 6 6
4 4 4 3 3 2 3 3 2 2 2 2 2 2 2 3 4 4 4 3 2 2 2 2 3 3 3 3 3 2 2 2 1 2 2 2 2 2 3 4 7 8 7
4 4 4 4 3 3 4 3 3 3 2 2 2 3 3 2 2 3 3 3 3 1 2 2 2 2 2 2 2 3 3 2 2 1 2 2 2 2 2 3 7 7 8
4 4 4 4 4 3 5 5 4 3 3 3 2 2 3 3 3 3 3 3 3 2 2 3 4 3 3 3 2 1 1 2 2 2 1 1 1 1 1 2 4 8 8
5 5 4 4 4 4 5 6 5 4 3 3 2 2 2 3 4 3 3 4 4 3 3 3 2 2 3 4 5 3 2 2 2 2 1 1 1 1 1 1 2 4 4
Wind_Direction
97 97 99 109 127 124 129 126 122 133 142 154 146 138 132 118 113 117 124 138 139 149 159 165 168 170 172 174 172 181 187 198 206 210 207 205 204 206 208 211 213 211 212
107 108 117 118 121 112 95 111 129 131 128 124 119 124 124 125 123 126 136 143 151 159 159 161 166 171 172 176 187 191 198 206 210 208 205 201 203 208 213 219 216 211 212
114 120 113 111 99 103 110 103 87 107 119 121 117 114 113 118 121 125 135 143 154 163 163 166 169 168 167 177 189 197 206 214 218 198 189 189 194 201 209 214 214 213 210
116 121 108 113 117 116 111 113 104 89 95 106 111 115 117 120 123 132 128 139 149 156 167 171 170 169 175 184 192 191 200 207 199 186 185 188 192 195 202 205 211 214 216
115 112 111 114 121 104 96 98 94 101 120 110 116 120 113 118 125 127 128 138 131 133 144 153 161 169 178 183 187 190 194 186 175 178 184 189 190 187 191 201 208 212 217
114 109 121 111 108 99 90 92 104 108 119 124 118 105 108 115 123 112 123 112 115 129 137 139 157 177 181 176 182 189 196 181 175 177 180 185 195 195 190 188 196 211 219
113 112 95 103 96 95 86 108 119 140 142 133 117 110 104 111 114 119 123 107 117 124 125 134 146 150 153 163 171 176 187 180 178 171 166 167 174 181 184 189 199 210 221
121 123 120 115 108 114 111 106 129 158 149 145 142 135 124 86 54 130 132 136 127 117 115 134 137 127 126 130 133 157 162 162 154 149 146 142 139 142 164 188 192 195 212
114 103 107 108 118 137 136 144 165 181 172 180 141 119 133 144 142 90 124 110 116 108 113 125 125 126 129 121 128 127 130 131 132 135 138 126 112 124 148 168 176 173 205
110 112 115 120 117 107 122 196 104 287 209 191 157 141 128 126 138 132 99 120 128 114 106 111 121 121 122 116 103 109 117 118 121 110 101 102 99 101 103 175 209 250 265
125 123 124 129 131 133 137 129 35 343 308 271 165 143 137 151 143 138 150 150 120 121 140 130 114 117 117 116 112 109 116 114 107 99 90 85 90 97 92 92 208 226 96
132 133 130 123 125 143 164 180 209 204 271 312 294 138 157 163 152 138 133 146 134 113 103 106 117 122 126 122 117 114 117 113 107 99 93 87 82 81 90 95 106 91 76
131 132 120 120 133 164 169 177 173 207 239 242 249 250 251 260 140 123 124 134 123 124 102 92 105 116 115 111 114 114 109 109 109 106 101 95 86 80 79 76 71 64 58
126 130 131 140 153 165 160 178 173 200 207 232 246 240 206 206 171 134 139 139 129 119 108 111 96 103 99 104 116 116 111 112 112 111 107 103 96 87 78 74 68 65 61
135 131 140 141 142 143 153 153 154 187 172 184 210 211 207 204 148 144 135 149 154 157 154 140 113 116 115 107 128 128 117 118 121 117 113 111 106 97 89 84 80 79 76
100 120 127 137 142 141 145 145 134 144 148 162 166 162 222 162 138 126 121 154 138 136 138 138 133 136 132 128 132 130 127 126 126 128 124 119 113 109 104 100 97 94 90
141 144 138 146 149 144 137 145 153 159 161 158 180 171 178 150 98 122 158 160 138 129 137 129 121 128 122 122 134 142 148 141 134 138 135 132 129 126 120 113 106 100 97
164 158 153 158 159 148 159 176 181 173 163 147 134 132 192 167 156 216 174 106 137 147 143 144 138 145 145 145 148 152 144 133 138 139 141 141 142 141 135 127 118 111 105
163 164 167 170 169 168 177 177 179 175 167 163 156 175 197 178 188 201 178 165 186 152 140 148 151 150 152 146 142 153 128 123 138 143 145 146 151 148 143 134 129 124 117
171 173 176 178 190 192 193 187 174 173 158 150 144 141 181 178 182 194 176 169 164 145 142 143 147 155 151 148 153 162 147 158 151 152 136 141 148 142 143 141 141 140 141
182 178 184 189 201 206 208 196 196 180 165 149 135 122 100 101 94 103 138 131 152 157 159 150 155 150 150 164 189 197 184 180 167 146 148 160 151 148 157 169 169 168 167
179 185 193 194 211 217 169 167 184 181 168 162 154 140 137 123 119 121 114 101 121 165 166 158 161 170 174 183 183 194 178 170 189 182 172 192 173 174 176 176 180 180 182
184 190 197 194 198 202 180 170 185 203 178 172 167 165 185 150 145 140 135 133 116 135 165 169 167 180 183 185 182 196 190 196 217 196 188 211 180 183 182 174 173 181 187
191 199 202 194 197 200 183 181 193 205 196 193 177 166 161 162 157 143 165 152 149 149 170 169 157 178 170 178 199 207 203 204 217 202 179 219 201 196 180 165 178 182 192
196 201 197 194 197 188 186 190 194 196 197 204 191 176 175 167 159 160 168 156 152 147 105 111 132 148 159 166 173 175 204 204 232 224 206 217 212 187 170 169 190 195 197
201 202 199 195 196 189 186 189 192 210 200 192 182 171 151 156 160 173 182 175 181 174 151 138 138 167 185 188 189 187 204 220 232 225 207 214 222 184 203 191 182 189 204